USA 18

Satellite information

Favourite Embed

Satellite Type and Status

PAYLOADIN ORBIT

Key statistics

Satellite USA 18 at a glance.

Uptime

14331

Days in orbit

Revolutions

≈ 13.8

Per day

Orbit

LEO

Low Earth Orbit

Inclination

63.3

Latest

Satellite identification and parameters

Extended collection of information and parameters for USA 18.

Object identification

Identified? True

Debris? False

Object name: USA 18

International designator: 1986-014H

Object number (NORAD): 16631

Object ID (CCSDS): 16631

Country: UNITED STATES OF AMERICA (US)

Current information (Y/N): Y

RCS size: LARGE

Orbital parameters

Period: 104.102 minutes

Inclination: 63.2905 deg

SMA: 7330.5 km

Apoapsis: 1543.267 km

Periapsis: 361.462 km

RAAN: 91.8014 deg

Eccentricy: 0.0806088

Argument of periapsis: 104.5098 deg

Mean anomaly: 264.669 deg

Mean motion: 13.83255493 rev/day

Mean motion (dot): 0.00012448 rev/day2

B* drag term: 0.00070923 1/REarth

Two-line elements (TLE)

Creation date: May 6, 2025, 3:54 a.m.

Reference frame: TEME

Reference center: EARTH

Epoch: May 5, 2025, 9:36 p.m. UTC

TLE line 0: 0 USA 18

TLE line 1: 1 16631U 86014H 25125.90041329 .00012448 00000-0 70923-3 0 9992

TLE line 2: 2 16631 63.2905 91.8014 0806088 104.5098 264.6690 13.83255493287827

Live tracking on map

Real-time ground track for satellite USA 18.

In-orbit conjunctions

There are no conjunctions computed for USA 18, at the moment. Check back to stay up to date, as we update our databases every day.

Go to all conjunctions

Associated space launch

The Parcae satellites were passive ELINT satellites. MSD satellites were dispensers of triplets of ocean surveillance satellites.

USA 18 was lifted into orbit during the mission ‘Atlas H | Parcae 8A,B,C & MSD 8’, on board a Atlas H space rocket.

The launch took place on Feb. 9, 1986, 10:06 a.m. from Space Launch Complex 3E.

For more information about the launch, click the button.

Launch to space Atlas H | Parcae 8A,B,C & MSD 8
Atlas H | Parcae 8A,B,C & MSD 8

Agency: N/A

Status: Launch Successful

Launch date: Feb. 9, 1986, 10:06 a.m. UTC

Rocket: Atlas H

Launch pad: Space Launch Complex 3E

Location: Vandenberg SFB, CA, USA

...

Latest news about this satellite

There are no fresh news available about this satellite. Check back as we update our databases every day.


Newsletter sign-up

Weekly statistics, charts and insights to help you stay on top of the space industry.